Theta_e
311 310 312 311 312 302 309 312 307 309 315 314 310 310 312 310 309 305 313 311 315 324 323 324 327 333 332 331 336 332 333 337 336 336 334 334 338 337 336 336 337 340 340 341 343 346 346 347 347 349 350 352 356 356 356 358 359 359 358 362 360 360 361
310 314 313 313 313 313 314 307 310 316 319 316 311 302 306 305 303 304 309 307 308 311 306 324 324 325 330 331 332 334 335 337 334 336 336 338 338 340 342 338 339 341 342 342 343 345 345 346 348 349 352 353 354 355 356 356 357 358 358 358 357 358 359
311 313 313 310 314 316 312 312 318 309 305 303 309 307 299 300 300 302 305 306 310 313 310 319 321 323 327 331 334 334 331 331 333 335 336 340 341 340 340 341 339 339 341 343 344 345 345 347 349 350 349 351 353 353 354 355 355 355 356 356 357 358 358
311 311 310 303 306 313 314 317 313 317 312 306 303 307 307 306 300 303 301 303 304 316 316 321 322 324 329 331 330 332 332 333 331 334 335 338 340 340 340 340 341 339 341 344 344 345 345 346 349 350 349 349 350 353 354 354 355 355 356 356 358 356 356
309 303 307 305 309 308 309 309 308 310 310 312 310 310 308 307 304 302 301 298 306 316 326 326 327 328 329 331 330 333 332 333 333 335 335 337 339 341 340 342 342 340 341 342 344 345 347 347 349 349 349 350 351 352 353 352 354 353 353 355 356 358 358
303 305 311 313 311 311 313 310 308 308 306 304 302 301 313 310 304 299 304 300 312 321 329 329 331 332 332 334 333 331 336 333 335 335 338 340 339 340 342 342 340 342 348 344 343 345 347 347 348 349 349 350 352 352 353 352 352 351 352 352 355 358 359
306 307 312 315 315 315 314 314 310 311 310 309 305 297 302 307 307 309 308 304 308 324 327 329 333 335 335 336 337 334 335 335 337 337 338 341 340 339 340 342 344 344 348 352 349 350 348 348 349 352 352 354 353 354 355 355 354 355 351 352 353 358 356
308 311 314 315 315 315 312 312 313 312 310 310 307 306 308 306 307 303 303 301 311 322 326 332 334 336 339 337 335 334 334 335 337 343 342 342 342 344 342 346 346 345 347 348 352 345 352 352 351 353 355 356 356 355 358 359 354 352 351 357 362 359 359
302 305 310 309 314 314 311 311 315 315 313 312 311 310 312 305 306 305 301 296 305 321 329 331 336 332 335 333 339 341 338 335 336 340 345 345 344 344 344 344 344 346 344 346 348 351 352 354 355 357 357 359 359 359 358 357 360 357 356 356 359 360 359
293 295 296 299 304 308 312 318 314 315 314 311 309 304 307 301 308 308 304 304 313 322 330 331 334 332 332 336 337 338 338 339 334 335 335 338 340 341 343 346 348 347 349 349 351 352 355 356 358 360 362 361 360 361 361 360 353 358 357 359 356 354 358
301 303 305 309 311 310 305 311 310 313 313 313 313 311 307 302 307 306 310 310 314 317 322 326 329 330 332 333 335 335 335 338 339 337 339 339 340 340 341 343 346 346 349 350 353 354 355 355 358 359 360 360 361 360 361 361 362 361 362 359 359 359 359
307 307 307 312 311 309 308 308 310 312 312 313 312 307 304 315 306 302 312 317 312 316 321 325 325 331 332 332 333 333 335 337 338 339 337 337 340 339 340 342 342 344 345 346 348 349 351 355 358 358 359 360 361 361 362 362 364 363 362 362 362 361 363
308 310 309 311 311 309 311 311 311 312 312 312 311 310 310 312 305 301 314 319 314 317 323 326 328 330 330 330 332 335 336 337 338 339 339 339 336 338 340 339 342 343 343 344 346 347 349 350 350 352 355 358 359 360 362 363 363 363 363 360 359 360 362
308 309 308 311 311 310 309 311 311 313 313 314 315 313 313 311 311 314 316 317 319 323 325 328 328 330 331 331 334 334 334 335 336 336 336 337 338 339 339 340 340 340 342 343 345 346 347 347 347 348 349 352 354 355 357 359 361 360 360 359 359 358 358
308 310 311 310 309 308 308 308 309 310 312 311 312 314 312 312 315 317 318 318 319 326 330 329 330 330 331 332 331 331 332 333 332 331 331 332 333 336 337 338 338 339 340 340 340 341 341 343 343 344 346 350 351 352 353 355 357 358 358 357 358 357 357
304 308 309 309 310 309 306 308 309 310 309 310 311 312 314 314 312 315 316 313 316 325 331 330 329 328 327 326 327 328 329 330 329 328 328 329 330 332 334 336 337 337 338 338 339 340 340 339 338 338 339 342 346 350 352 354 356 358 358 357 357 358 360
301 308 308 308 307 306 304 304 307 312 313 312 313 313 315 318 317 314 311 311 321 326 328 325 325 325 325 326 326 327 328 329 328 327 327 328 329 331 333 335 336 336 337 338 338 339 341 341 339 339 340 340 341 343 346 352 356 357 356 357 357 357 358
303 304 309 310 304 296 299 314 317 314 311 314 312 314 318 320 323 317 319 321 327 327 326 324 323 323 324 325 328 330 329 327 327 327 327 328 330 332 333 334 335 336 337 337 338 339 339 340 340 341 341 342 343 346 346 347 351 354 355 356 356 357 357
301 305 306 301 295 297 312 315 318 317 314 313 312 315 318 320 323 323 322 324 328 327 326 325 327 327 327 328 328 329 330 329 327 325 325 325 327 330 333 334 334 335 336 336 337 338 338 339 341 342 341 342 344 346 348 347 349 352 354 354 354 356 355
305 302 303 296 297 309 315 314 317 317 315 315 314 314 317 320 322 325 324 321 325 326 326 327 329 329 329 329 329 329 330 330 329 327 326 326 327 328 332 334 334 334 335 336 337 338 340 340 340 341 341 342 342 344 348 348 350 351 352 352 351 351 351
299 301 300 299 308 306 311 311 312 312 312 314 310 306 312 323 324 327 327 326 326 326 326 327 327 329 328 326 326 332 331 331 331 330 329 328 327 328 332 333 333 335 336 336 338 340 341 341 340 341 342 342 341 341 341 343 344 344 344 343 344 345 347
304 300 298 299 300 297 306 312 317 317 317 316 317 316 312 320 324 329 328 327 326 326 327 327 328 329 324 319 320 327 330 332 332 332 332 330 330 330 332 333 333 335 335 335 336 338 340 339 340 341 342 342 340 339 339 340 341 340 341 341 342 342 343
303 300 297 296 296 299 308 312 314 317 318 316 319 310 306 319 324 328 328 326 326 325 325 326 328 325 320 319 322 327 330 330 331 330 330 330 328 329 331 332 331 332 333 333 334 337 338 338 341 341 342 342 341 340 340 340 340 340 339 340 341 343 345
302 301 298 297 301 301 311 313 313 316 317 316 313 300 301 319 324 327 328 326 326 327 327 329 328 324 318 319 323 328 329 329 329 329 329 329 328 327 329 330 332 332 334 333 333 334 334 336 338 339 339 339 340 340 340 341 340 339 339 340 341 343 343
301 300 299 301 303 312 315 314 316 316 317 313 303 297 310 322 325 326 329 328 328 329 328 327 323 327 327 328 330 331 331 330 329 329 330 329 327 325 326 328 332 329 328 328 329 331 334 337 337 337 337 336 336 339 340 340 339 340 343 344 345 346 345
300 301 299 299 304 313 315 315 315 318 313 301 299 313 323 323 323 327 326 328 329 327 331 330 328 329 331 331 331 330 329 328 327 328 328 325 323 325 327 329 328 326 325 327 327 328 330 334 335 335 335 334 335 335 335 335 338 341 342 343 343 343 343
303 303 300 296 292 312 318 317 314 318 307 309 317 323 323 324 323 325 324 328 328 328 330 330 332 331 330 330 329 329 329 329 327 326 324 322 321 321 323 324 325 325 326 326 325 326 326 329 331 333 333 333 333 333 332 334 336 338 339 340 340 341 341
299 299 297 296 311 314 319 315 309 317 320 321 323 322 324 322 323 322 327 328 329 328 327 325 328 330 329 329 329 328 328 325 324 324 323 322 322 322 321 322 323 325 326 326 327 328 327 329 330 332 333 332 332 332 331 334 334 334 333 332 334 333 334
304 302 306 312 318 318 318 319 322 325 326 326 324 325 323 324 326 327 326 327 329 331 328 327 327 328 330 329 328 326 324 320 319 318 319 321 323 323 322 322 324 324 322 322 324 327 329 331 332 333 332 331 331 330 331 333 332 331 331 331 329 327 326
313 315 316 321 318 317 318 318 325 324 325 325 326 324 323 326 326 326 326 326 329 331 330 327 327 328 329 327 326 324 321 319 319 320 319 320 321 320 321 322 323 324 324 325 324 323 326 328 330 332 331 331 331 332 332 332 333 332 333 332 329 327 325
306 300 316 313 316 319 317 320 324 328 327 328 329 327 329 330 329 327 328 328 329 332 328 326 328 329 329 327 325 322 321 319 319 317 318 320 321 322 321 322 322 321 321 321 322 323 324 326 328 330 332 332 332 332 333 330 331 334 333 331 330 329 327
306 308 315 316 320 322 320 321 323 322 326 327 329 332 332 331 331 331 328 328 329 330 329 328 326 326 326 324 319 318 318 319 321 322 322 322 322 323 323 323 324 323 323 322 322 323 324 326 327 327 329 332 334 334 331 329 331 333 332 331 328 327 326
310 314 318 319 320 320 320 321 323 326 327 329 329 330 331 330 330 330 332 328 328 328 329 329 326 325 324 321 319 318 320 321 322 322 322 324 325 326 327 327 328 327 327 326 326 324 324 324 325 326 327 326 328 331 333 335 336 333 332 331 330 327 326
305 306 312 315 308 309 315 318 323 328 331 330 330 330 330 330 329 329 328 330 330 330 330 330 329 327 324 322 322 320 320 320 321 323 324 326 327 328 329 330 330 330 330 330 329 328 328 329 328 328 327 328 330 329 332 335 336 335 334 331 329 325 326
304 310 315 319 317 316 320 321 324 330 331 330 329 329 329 330 330 330 329 329 330 330 329 331 329 327 324 323 322 321 321 323 323 324 325 326 327 328 330 330 331 331 332 332 332 331 331 331 330 330 330 329 330 330 332 334 334 335 334 332 330 328 325
312 316 319 319 317 314 321 324 328 328 330 328 328 329 330 330 330 330 330 330 329 329 329 330 329 326 323 323 322 323 324 324 325 326 327 327 329 329 329 330 331 331 331 332 332 332 332 332 332 332 330 331 331 330 330 330 332 334 334 332 329 328 329
313 317 319 322 320 320 326 328 328 328 328 328 326 328 328 329 329 330 329 329 329 328 327 327 328 327 324 323 324 324 324 325 326 327 328 329 328 327 327 328 330 330 331 331 332 332 332 331 331 330 331 330 332 331 332 331 330 328 329 331 331 330 331
Wind_Speed
7 10 10 11 8 9 7 9 9 7 4 7 5 7 5 7 3 5 6 4 4 2 6 3 8 6 6 10 7 9 10 15 13 10 13 18 14 15 15 15 16 16 16 15 14 14 14 14 14 13 13 12 12 12 12 13 13 13 14 13 12 12 11
8 11 9 13 13 7 1 7 7 5 2 3 4 4 4 7 5 4 5 2 6 3 2 4 6 10 6 1 2 6 9 11 12 10 10 9 10 7 7 10 16 15 15 16 15 14 15 14 14 14 13 12 12 12 13 14 14 14 14 14 14 12 12
10 9 7 9 13 6 8 6 2 9 7 9 8 5 8 7 7 3 6 7 7 5 2 8 8 10 7 3 3 6 10 11 10 9 6 7 8 3 2 10 11 14 14 15 14 15 15 14 14 14 13 13 13 13 13 13 14 14 14 13 13 12 12
4 3 4 9 10 7 7 7 9 8 7 6 8 9 3 3 7 3 9 4 3 1 3 2 1 2 8 6 10 11 7 9 9 9 8 8 6 3 3 7 12 14 14 14 15 14 14 15 14 12 14 12 14 13 13 12 13 13 13 13 12 13 13
2 8 6 8 5 5 10 10 8 8 8 5 5 3 8 5 6 2 2 3 2 1 2 3 4 4 2 4 2 5 4 3 10 10 10 9 10 11 12 16 16 13 13 14 15 12 11 12 12 11 12 11 12 12 13 13 13 12 13 13 12 11 10
7 8 7 8 10 10 11 8 9 11 10 10 9 10 7 8 7 6 2 5 4 4 1 2 2 3 4 4 3 3 8 5 8 10 10 9 7 8 5 1 4 0 7 13 12 10 8 10 12 13 11 13 11 11 10 12 12 13 13 11 12 9 9
5 8 11 4 8 8 12 8 10 9 9 8 8 8 8 7 9 8 7 3 1 1 2 4 2 2 4 3 4 6 11 4 5 7 10 9 8 7 6 6 4 5 8 5 4 1 13 14 11 11 9 9 9 10 10 9 9 9 11 11 11 13 12
2 11 14 7 8 10 11 12 11 8 7 8 10 8 6 7 4 8 5 6 3 1 3 3 1 2 5 6 9 9 8 6 6 5 7 8 8 8 7 4 4 3 4 7 3 6 8 7 8 10 8 8 8 7 1 3 7 10 11 3 10 5 4
8 11 10 9 7 5 8 5 3 7 8 9 9 8 2 7 8 8 6 3 3 4 7 2 2 6 5 8 6 7 8 8 2 3 5 6 6 7 6 5 3 3 3 4 2 3 3 3 4 4 5 5 5 5 6 6 5 3 6 3 7 11 10
9 6 7 2 7 8 5 9 8 8 9 8 10 10 7 6 6 7 4 4 5 3 5 5 5 8 8 6 7 7 5 6 8 6 7 6 6 7 7 8 7 5 4 1 3 4 5 5 3 4 5 5 5 4 6 6 7 3 1 6 1 3 1
7 5 5 5 7 1 10 4 6 9 10 8 10 6 4 7 5 9 6 5 8 7 6 6 4 7 6 5 6 6 6 7 8 9 6 5 8 8 7 6 7 7 7 8 7 6 5 3 4 4 5 6 6 7 7 6 5 5 4 5 6 2 5
9 6 5 4 5 5 3 5 8 8 6 11 12 10 8 7 6 4 3 8 7 2 3 5 4 7 8 8 8 6 6 7 7 9 10 8 7 8 4 8 8 9 9 9 9 8 6 5 4 4 4 4 5 5 6 6 6 6 6 7 6 6 5
6 7 5 3 5 10 3 2 5 8 11 9 14 11 8 5 8 4 8 11 12 8 7 7 7 8 8 9 8 8 7 7 7 9 10 10 10 8 9 10 11 10 9 7 8 7 7 7 6 5 2 3 2 3 4 4 5 7 6 3 4 5 6
5 3 7 2 5 11 9 11 9 15 12 16 16 12 3 6 8 5 10 5 10 8 8 8 8 8 7 7 7 7 10 10 10 13 13 12 12 12 12 12 11 10 10 10 10 9 9 8 7 6 3 1 1 3 4 4 5 5 4 5 6 8 9
3 5 5 4 8 7 14 11 9 10 6 2 4 7 3 2 5 10 9 9 6 6 9 10 9 9 7 9 10 10 10 11 12 12 12 11 11 12 11 12 11 10 10 9 8 9 8 8 7 6 6 5 3 5 2 3 4 4 5 4 6 7 8
4 4 7 10 10 13 11 15 13 10 8 8 2 3 5 1 3 10 10 4 3 5 7 9 10 10 9 11 10 9 9 11 11 12 11 11 11 11 10 10 10 10 10 9 8 8 7 6 6 5 5 5 5 2 4 5 5 5 7 8 7 7 5
5 10 16 11 12 13 13 6 10 17 4 6 5 4 2 7 7 5 7 6 8 10 10 10 9 10 9 9 8 8 11 11 11 12 11 11 10 10 10 10 10 10 9 9 8 7 6 6 5 5 3 3 3 5 5 5 5 5 7 7 7 7 7
4 7 16 14 10 11 7 5 7 5 2 5 1 1 3 7 5 4 1 1 7 11 11 10 10 11 9 10 9 9 8 9 11 11 10 10 9 9 9 9 9 9 8 8 8 8 7 6 5 4 3 2 2 3 4 5 5 5 5 5 6 5 5
7 5 9 4 11 4 5 6 1 6 6 8 11 2 3 1 5 10 6 9 8 10 10 10 12 13 13 11 11 11 10 10 10 10 10 9 9 9 8 9 9 9 8 8 7 7 7 6 5 4 3 3 2 2 2 3 4 4 3 3 2 2 2
7 9 6 9 2 6 6 5 3 2 4 5 7 7 3 1 1 9 10 10 10 11 11 11 12 14 14 12 11 11 10 8 8 9 9 10 9 8 6 9 9 8 8 8 8 7 6 5 5 4 4 4 4 3 3 6 7 7 6 5 4 3 2
9 6 9 7 4 3 7 6 6 5 3 4 7 6 5 2 1 5 7 9 10 12 11 12 13 13 11 11 9 9 11 11 10 10 10 9 9 8 7 10 9 8 7 7 7 7 7 7 6 6 5 6 7 8 9 8 9 9 9 9 8 8 8
7 8 7 7 6 7 3 5 6 4 3 2 3 4 1 4 4 3 7 10 9 10 11 11 13 13 11 10 8 7 9 10 10 10 9 9 8 8 8 10 8 8 7 6 6 8 10 8 7 6 6 7 8 8 9 9 9 10 10 9 8 7 7
4 6 8 7 8 2 2 1 6 3 2 4 4 5 6 4 7 5 6 9 9 9 10 11 10 8 6 8 9 6 7 8 9 9 8 9 8 9 8 10 9 8 8 7 6 10 11 10 9 9 9 9 9 10 9 9 9 10 9 8 7 7 8
8 8 7 7 6 1 6 7 8 4 1 3 6 8 4 4 5 5 6 8 8 7 8 8 6 2 4 7 9 10 9 8 8 7 7 9 9 9 9 9 11 10 8 7 8 10 11 10 10 11 11 10 10 10 10 10 10 10 9 8 6 6 7
9 8 8 8 2 4 6 7 3 4 2 2 8 5 5 4 4 4 6 7 8 7 7 5 2 5 5 9 12 11 9 9 9 9 8 8 8 9 9 9 8 8 8 8 8 10 9 9 10 9 9 10 10 8 10 11 11 11 9 9 9 9 9
9 7 7 7 2 4 2 1 5 4 4 7 4 6 1 6 4 5 3 6 9 7 6 6 6 7 12 14 12 11 10 9 9 8 8 8 9 10 9 7 8 9 9 9 10 10 9 10 10 9 9 10 9 10 11 12 11 10 10 10 10 10 10
7 7 6 4 6 4 4 3 2 4 9 7 1 6 9 8 5 6 4 4 7 4 4 9 8 11 12 13 13 11 10 10 9 9 9 9 9 9 8 8 9 8 9 10 10 11 10 10 9 9 10 10 10 10 11 11 10 10 10 9 9 8 9
8 7 7 1 3 3 3 3 4 4 7 10 8 6 7 6 4 4 5 9 9 9 6 9 9 9 11 11 11 10 10 10 10 10 9 9 9 9 10 10 10 10 10 10 10 11 10 9 10 9 10 10 10 10 11 9 8 8 8 8 8 9 9
6 4 2 5 4 3 2 1 5 8 7 4 6 4 4 5 3 2 1 5 6 4 9 11 10 10 9 11 10 9 10 10 10 10 10 10 9 10 9 9 9 9 10 11 11 11 10 10 9 9 9 9 10 10 8 8 8 8 8 8 8 8 8
1 1 0 4 4 3 1 3 3 4 9 7 7 6 7 6 5 7 4 5 5 5 9 9 8 9 10 10 9 10 10 10 10 10 10 10 11 11 11 10 9 9 9 9 10 11 11 11 9 8 8 8 9 8 7 6 7 7 7 7 7 8 7
1 4 8 8 5 4 6 4 4 2 5 7 10 10 9 12 15 11 9 7 8 7 10 11 9 9 9 10 8 9 9 10 10 11 10 10 9 9 10 9 9 9 9 10 9 10 10 8 8 8 7 7 7 6 6 6 6 5 5 6 6 6 7
6 3 2 3 3 0 1 3 5 5 4 4 2 4 5 5 7 15 10 9 6 7 9 12 11 10 9 10 11 10 10 9 9 9 9 10 10 9 9 8 9 9 9 9 10 9 8 8 8 8 8 8 8 8 8 7 6 5 5 5 6 6 6
6 4 4 2 2 3 4 4 3 3 5 5 5 5 5 6 6 9 12 13 9 9 11 13 13 12 12 12 12 12 11 10 10 10 10 10 9 9 9 9 9 8 9 9 9 9 9 8 8 8 8 8 8 7 7 6 5 5 4 3 3 4 4
8 6 6 6 6 6 6 7 5 7 7 6 7 6 7 7 7 8 9 12 14 12 12 11 13 13 12 13 12 13 11 11 12 12 11 10 10 10 9 9 9 9 9 9 9 9 8 7 7 7 8 7 7 7 6 5 5 4 4 4 4 6 6
6 3 6 7 6 4 2 6 7 8 7 7 7 8 8 8 8 8 9 10 9 11 12 11 12 12 12 13 12 12 11 12 11 11 11 10 9 9 9 9 9 9 8 8 8 8 7 7 7 7 7 6 6 6 5 5 5 4 3 2 1 4 5
4 2 1 6 5 5 4 7 9 7 6 7 8 7 8 8 9 9 9 10 11 11 11 11 11 12 13 13 12 12 12 12 12 11 10 10 9 9 8 8 8 8 8 7 7 7 6 6 6 6 7 6 5 6 5 5 5 5 5 4 4 5 4
5 3 4 5 6 4 4 9 7 7 7 7 8 9 9 10 9 9 10 10 10 12 11 11 12 11 12 12 11 11 11 11 11 10 9 8 8 8 8 9 8 7 7 7 6 6 6 5 5 5 5 5 4 4 5 5 4 5 4 4 4 2 2
Wind_Direction
230 223 226 222 246 250 175 195 216 240 196 204 227 275 13 312 145 274 298 164 65 282 181 61 332 147 93 21 338 132 159 159 208 193 200 192 197 201 190 184 188 188 183 180 184 184 182 183 186 188 182 176 180 175 179 181 186 187 188 190 194 196 194
225 257 226 243 206 222 162 213 218 230 151 268 213 239 264 242 248 277 319 138 216 184 287 131 95 326 37 78 117 92 144 133 163 187 192 161 174 208 274 201 185 186 182 180 185 185 186 185 184 184 181 183 179 186 183 183 190 191 192 190 195 195 196
196 193 262 248 277 194 207 231 181 231 180 204 196 240 254 274 267 141 92 346 341 359 146 358 342 358 359 37 37 128 141 158 145 147 155 148 154 188 227 296 210 184 182 183 184 186 188 183 184 181 182 189 181 190 190 188 190 195 195 193 193 195 197
336 228 226 244 207 202 262 249 219 215 254 242 219 217 251 90 266 318 108 106 255 91 317 174 120 251 341 17 27 358 67 119 137 140 151 149 145 123 296 280 256 190 184 182 183 188 193 183 182 185 181 192 189 188 190 174 203 199 198 199 187 197 197
275 240 223 244 240 214 207 214 231 221 234 264 268 210 236 227 292 225 164 86 197 74 271 351 6 81 243 52 37 102 54 141 135 141 152 161 158 164 193 209 223 181 185 187 184 187 198 187 173 188 187 191 200 188 188 199 179 195 206 201 193 191 204
217 242 198 144 186 220 246 236 236 226 213 211 206 217 185 212 219 262 278 149 144 233 162 308 13 45 57 9 103 93 118 100 111 141 150 149 158 172 167 227 46 316 193 189 194 182 191 213 177 193 185 185 201 196 186 199 197 204 196 194 199 176 220
334 293 325 343 255 234 264 237 239 236 232 242 232 239 217 231 241 266 266 110 194 331 330 329 17 75 76 43 24 98 54 51 119 137 136 149 157 160 169 159 60 14 15 345 141 103 198 208 183 183 189 181 194 196 196 195 211 208 224 184 203 166 201
279 277 276 275 272 255 243 230 247 254 248 243 241 241 252 247 257 249 255 224 84 46 315 281 3 67 96 71 26 37 68 38 22 32 105 148 145 140 150 126 94 11 1 1 92 159 254 177 193 181 187 183 191 188 137 301 220 208 228 283 52 12 220
264 230 229 217 187 257 254 283 320 294 243 237 256 275 226 251 235 273 275 249 183 189 229 159 130 71 82 89 66 74 107 127 72 27 72 74 98 88 85 120 109 56 13 332 350 113 199 154 171 163 172 153 175 148 145 216 286 289 271 206 185 171 207
233 219 227 215 282 236 254 87 300 290 284 256 242 215 209 239 199 254 314 71 294 175 179 145 103 105 79 64 87 85 69 72 95 72 48 48 69 88 76 75 93 122 140 185 44 76 106 105 126 124 113 132 152 160 165 149 138 186 229 295 113 233 27
298 329 352 314 246 276 252 40 303 261 293 263 245 272 235 230 205 225 126 141 129 169 159 84 71 91 79 74 86 83 69 68 90 91 76 88 87 81 93 103 72 82 85 64 60 66 78 114 128 139 152 161 167 160 167 154 139 153 209 209 260 138 163
255 276 308 226 257 266 263 252 295 288 249 276 257 230 218 104 273 208 29 109 126 159 91 112 79 56 65 69 60 70 72 69 65 91 101 90 99 109 151 113 97 86 79 79 76 68 66 74 100 116 154 162 170 177 163 163 157 167 177 197 207 223 199
258 273 231 301 262 237 225 141 253 300 272 260 272 263 252 253 237 218 182 165 155 190 130 102 84 78 76 70 60 49 70 81 79 81 85 86 94 106 93 93 96 87 77 81 87 92 90 88 69 60 79 138 151 180 174 152 186 191 189 187 225 233 226
263 267 270 156 348 314 246 202 147 215 216 226 192 233 269 250 224 112 161 101 113 120 107 109 91 81 82 85 72 70 67 64 63 66 64 63 66 74 77 77 79 75 71 67 63 64 61 58 60 59 58 79 211 180 177 189 193 183 204 198 213 219 228
173 233 220 191 156 252 311 269 233 249 202 223 155 149 233 307 275 112 151 106 98 106 119 109 104 93 87 83 72 67 60 61 63 62 62 61 60 60 66 76 75 78 81 81 74 63 52 41 38 38 18 14 350 338 332 193 194 193 216 235 237 239 241
260 261 226 233 202 148 204 272 295 272 221 219 126 66 86 251 245 136 137 105 171 155 137 108 105 100 84 77 74 76 75 76 70 68 64 61 60 58 63 66 71 75 75 73 72 75 73 62 40 27 11 351 340 332 311 274 249 219 217 212 227 237 232
232 196 254 221 228 212 191 206 234 258 351 7 17 24 130 135 239 122 198 190 159 160 135 123 112 104 88 77 67 76 79 78 80 78 71 69 65 68 63 62 65 64 66 65 63 60 57 55 51 25 8 344 339 330 319 314 297 247 232 232 239 240 239
294 187 205 214 219 234 224 169 199 249 304 315 235 183 70 110 87 199 47 208 153 155 143 137 129 109 98 88 76 73 86 89 86 81 79 75 77 74 69 66 63 63 60 60 53 49 46 42 38 36 3 341 314 274 275 288 301 291 264 248 248 255 261
267 230 206 220 256 278 55 146 224 228 240 252 272 335 244 116 137 130 151 152 160 144 130 133 122 115 110 98 88 92 90 90 91 92 87 83 75 69 72 69 62 56 58 58 57 56 48 40 39 34 35 25 346 3 304 236 237 268 275 277 322 349 323
253 254 260 258 352 154 182 154 173 38 272 252 261 242 266 218 138 145 147 153 145 130 132 131 124 120 114 103 97 98 103 102 99 98 95 94 89 83 70 71 64 59 57 58 59 64 69 67 64 55 62 63 63 70 59 60 57 52 51 49 38 7 327
271 266 266 265 49 178 197 197 204 214 217 199 214 231 211 62 209 152 143 137 141 140 143 137 131 130 122 103 98 104 111 114 104 93 92 91 96 104 92 82 79 73 66 66 77 87 71 65 57 57 64 66 65 62 56 55 57 54 55 49 44 43 44
233 268 266 258 207 240 118 320 10 248 194 293 161 201 294 282 251 125 153 149 151 147 142 151 154 152 131 116 109 122 121 116 113 108 104 103 96 86 87 94 93 86 77 75 69 77 92 67 59 59 60 63 64 65 65 68 67 68 65 63 62 60 58
243 243 269 265 277 49 198 117 251 135 271 194 111 235 198 217 225 157 166 157 155 157 160 155 165 180 175 129 126 133 126 119 115 114 107 98 95 97 89 85 70 64 60 45 63 93 87 74 77 68 70 72 79 79 77 75 76 76 75 75 72 72 69
261 274 255 263 284 119 168 220 240 178 136 213 237 243 159 202 192 143 153 154 162 163 163 169 185 259 347 158 135 157 144 129 114 106 108 110 112 111 105 96 104 106 98 82 64 56 67 75 83 84 80 73 68 76 82 84 82 82 86 91 97 87 80
235 224 257 273 174 96 167 181 184 173 221 290 246 257 89 184 105 145 155 150 158 161 161 141 159 100 147 120 132 133 123 127 123 116 113 99 97 98 97 97 96 93 87 80 78 85 84 75 71 69 75 81 80 74 74 73 74 76 77 77 72 74 78
258 243 255 263 35 75 33 121 253 99 234 224 299 88 54 82 128 130 188 160 137 148 193 134 143 120 116 120 130 126 113 100 87 90 101 108 100 90 87 90 94 97 100 100 94 80 75 88 92 88 78 73 77 76 75 76 79 78 77 74 72 72 71
250 260 251 260 263 129 276 102 198 103 263 115 205 103 127 139 153 134 177 151 136 169 142 95 124 125 130 134 132 127 132 133 128 118 111 105 108 113 117 114 108 104 96 89 82 81 79 69 67 79 84 81 79 80 78 77 77 77 73 74 80 94 100
254 234 239 223 26 44 94 209 307 81 91 127 143 177 122 136 137 174 182 140 151 181 141 137 131 133 131 127 126 134 126 127 128 124 116 111 112 114 106 103 99 96 95 90 86 81 76 79 79 76 81 82 79 76 73 66 71 72 74 79 81 74 62
265 296 332 124 264 317 139 341 101 101 105 112 105 101 133 134 132 19 178 140 149 143 126 130 144 136 136 131 148 141 134 141 135 132 129 123 116 107 100 92 93 100 99 99 98 91 85 80 75 75 74 77 77 74 70 66 63 64 64 64 64 68 75
245 314 299 105 191 228 85 157 68 131 143 143 129 157 141 120 148 219 212 161 158 147 128 128 144 143 150 147 148 133 144 135 122 119 119 118 118 117 115 111 104 99 91 89 95 101 105 101 94 86 80 74 75 78 79 76 73 66 65 67 68 67 67
292 223 157 232 198 182 211 151 133 105 152 157 160 175 164 174 155 156 196 153 170 164 144 152 147 149 151 154 136 119 116 121 133 134 129 124 116 109 107 114 119 110 108 102 90 81 71 72 86 88 84 96 105 108 100 92 79 73 80 83 77 77 77
217 319 159 176 77 341 194 189 154 193 150 150 175 122 125 148 140 143 172 148 171 160 163 141 147 151 170 140 127 132 134 134 125 118 116 114 111 107 108 104 99 99 96 93 90 84 79 71 62 66 74 68 58 52 61 67 71 59 42 41 67 72 76
205 195 243 138 187 210 217 214 208 142 146 143 135 134 137 153 144 145 157 146 155 200 168 157 159 167 154 140 152 145 139 135 132 126 122 118 116 116 108 100 98 99 99 98 99 95 91 86 79 70 56 52 65 66 52 49 45 51 52 58 65 91 92
231 226 204 188 224 204 190 207 172 138 141 154 140 148 154 156 155 152 167 157 170 175 150 157 156 151 147 159 157 144 141 138 131 131 128 126 120 115 113 113 108 105 102 99 95 93 87 83 81 78 72 61 45 46 45 44 34 42 31 36 39 32 24
246 237 206 177 240 295 222 179 152 147 153 150 154 159 154 155 157 165 164 158 160 146 150 158 156 146 154 150 146 142 140 134 139 137 136 131 130 128 124 120 114 107 105 102 102 100 100 100 95 88 80 74 67 54 40 33 27 27 9 9 40 104 63
268 300 261 158 211 246 182 150 135 151 154 153 155 150 147 153 156 162 163 159 150 144 156 155 148 152 151 147 150 142 138 144 139 142 143 140 131 128 127 125 122 120 115 110 106 100 100 99 91 92 89 82 80 83 65 48 31 20 12 5 8 14 44
263 221 240 195 179 234 141 130 154 151 155 158 152 146 153 149 154 157 150 147 149 154 156 152 144 153 150 155 146 141 147 141 146 139 137 135 143 150 146 137 133 128 122 119 120 114 114 111 104 93 92 93 75 77 89 62 45 39 15 13 7 23 84